User: anonymous   Login
Location: Unspecified
(0.0000°N, 0.0000°E)
Time: 13:39:33
(UTC+00:00)
Language:

PAKSAT 1R - Orbit

View from above orbital plane
View from above orbital plane
View from above satellite
View from above satellite

Ground track
Ground track

The orbit data is extracted from the following two-line orbital elements,

1 37779U 11042A   16238.30410671  .00000000  00000-0  10000-3 0  9997
2 37779   0.0218 119.9376 0002457 334.2624  27.2982  1.00273276 18360
Epoch (UTC): 25 August 2016 07:17:54
Eccentricity: 0.0002457
inclination: 0.0218°
perigee height: 35775 km
apogee height: 35796 km
right ascension of ascending node: 119.9376°
argument of perigee: 334.2624°
revolutions per day: 1.00273276
mean anomaly at epoch: 27.2982°
orbit number at epoch: 1836

The dashed part of the orbit path shows where the satellite is in the earth's shadow,  

DLR